Time,TemperatureF,DewpointF,PressureIn,WindDirection,WindDirectionDegrees,WindSpeedMPH,WindSpeedGustMPH,Humidity,HourlyPrecipIn,Conditions,Clouds,dailyrainin,SoftwareType,DateUTC
2017-02-22 00:02:00,54.9,22.4,29.64,SSW,207,5.0,5.0,28,0.00,,---,0.00,VWS V14.01,2017-02-22 07:02:00,
2017-02-22 00:07:00,54.5,22.1,29.64,SSW,212,6.0,7.0,28,0.00,,---,0.00,VWS V14.01,2017-02-22 07:07:00,
2017-02-22 00:12:00,54.1,22.6,29.64,SSW,205,6.0,8.0,29,0.00,,---,0.00,VWS V14.01,2017-02-22 07:12:00,
2017-02-22 00:17:00,53.9,22.4,29.64,SW,214,3.0,8.0,29,0.00,,---,0.00,VWS V14.01,2017-02-22 07:17:00,
2017-02-22 00:22:00,53.2,22.6,29.64,SW,215,3.0,8.0,30,0.00,,---,0.00,VWS V14.01,2017-02-22 07:22:00,
2017-02-22 00:27:00,52.3,22.6,29.64,WSW,252,4.0,8.0,31,0.00,,---,0.00,VWS V14.01,2017-02-22 07:27:00,
2017-02-22 00:32:00,51.1,22.3,29.64,WSW,243,4.0,6.0,32,0.00,,---,0.00,VWS V14.01,2017-02-22 07:32:00,
2017-02-22 00:37:00,50.4,21.7,29.64,SW,233,4.0,6.0,32,0.00,,---,0.00,VWS V14.01,2017-02-22 07:37:00,
2017-02-22 00:42:00,50.0,22.0,29.64,SW,232,3.0,7.0,33,0.00,,---,0.00,VWS V14.01,2017-02-22 07:42:00,
2017-02-22 00:47:00,49.4,21.5,29.64,SW,231,3.0,7.0,33,0.00,,---,0.00,VWS V14.01,2017-02-22 07:47:00,
2017-02-22 00:52:00,48.9,21.8,29.63,SSW,203,5.0,7.0,34,0.00,,---,0.00,VWS V14.01,2017-02-22 07:52:00,
2017-02-22 00:57:00,48.7,21.6,29.64,SW,216,3.0,7.0,34,0.00,,---,0.00,VWS V14.01,2017-02-22 07:57:00,
2017-02-22 01:02:00,47.9,21.6,29.63,SSW,209,4.0,6.0,35,0.00,,---,0.00,VWS V14.01,2017-02-22 08:02:00,
2017-02-22 01:07:00,47.1,21.5,29.63,SSW,209,6.0,7.0,36,0.00,,---,0.00,VWS V14.01,2017-02-22 08:07:00,
2017-02-22 01:12:00,46.5,21.6,29.63,SSW,213,3.0,7.0,37,0.00,,---,0.00,VWS V14.01,2017-02-22 08:12:00,
2017-02-22 01:18:00,46.0,21.2,29.63,SW,214,4.0,7.0,37,0.00,,---,0.00,VWS V14.01,2017-02-22 08:18:00,
2017-02-22 01:23:00,45.7,21.6,29.63,SW,216,3.0,7.0,38,0.00,,---,0.00,VWS V14.01,2017-02-22 08:23:00,
2017-02-22 01:28:00,45.7,21.6,29.63,SW,216,4.0,7.0,38,0.00,,---,0.00,VWS V14.01,2017-02-22 08:28:00,
2017-02-22 01:33:00,45.4,21.3,29.63,SSW,202,5.0,7.0,38,0.00,,---,0.00,VWS V14.01,2017-02-22 08:33:00,
2017-02-22 01:38:00,45.1,21.6,29.62,SSW,202,3.0,7.0,39,0.00,,---,0.00,VWS V14.01,2017-02-22 08:38:00,
2017-02-22 01:43:00,45.1,21.6,29.62,SSW,203,3.0,7.0,39,0.00,,---,0.00,VWS V14.01,2017-02-22 08:43:00,
2017-02-22 01:48:00,45.2,21.7,29.62,SW,222,0.0,7.0,39,0.00,,---,0.00,VWS V14.01,2017-02-22 08:48:00,
2017-02-22 01:53:00,45.2,21.7,29.62,South,190,7.0,7.0,39,0.00,,---,0.00,VWS V14.01,2017-02-22 08:53:00,
2017-02-22 01:58:00,45.5,22.0,29.62,SSW,213,3.0,7.0,39,0.00,,---,0.00,VWS V14.01,2017-02-22 08:58:00,
2017-02-22 02:03:00,46.0,21.8,29.61,SSW,198,3.0,7.0,38,0.00,,---,0.00,VWS V14.01,2017-02-22 09:03:00,
2017-02-22 02:08:00,46.2,22.0,29.61,SSW,198,6.0,7.0,38,0.00,,---,0.00,VWS V14.01,2017-02-22 09:08:00,
2017-02-22 02:13:00,46.0,22.5,29.61,SSW,208,5.0,7.0,39,0.00,,---,0.00,VWS V14.01,2017-02-22 09:13:00,
2017-02-22 02:18:00,45.8,22.3,29.61,SSW,208,0.0,7.0,39,0.00,,---,0.00,VWS V14.01,2017-02-22 09:18:00,
2017-02-22 02:23:00,45.5,22.6,29.61,SSW,207,4.0,7.0,40,0.00,,---,0.00,VWS V14.01,2017-02-22 09:23:00,
2017-02-22 02:28:00,45.2,22.3,29.61,SSW,209,5.0,7.0,40,0.00,,---,0.00,VWS V14.01,2017-02-22 09:28:00,
2017-02-22 02:33:00,44.9,22.1,29.61,SSW,209,0.0,0.0,40,0.00,,---,0.00,VWS V14.01,2017-02-22 09:33:00,
2017-02-22 02:38:00,44.9,22.1,29.61,SSW,209,0.0,3.0,40,0.00,,---,0.00,VWS V14.01,2017-02-22 09:38:00,
2017-02-22 02:43:00,44.8,22.0,29.61,SSW,209,0.0,3.0,40,0.00,,---,0.00,VWS V14.01,2017-02-22 09:43:00,
2017-02-22 02:48:00,44.9,22.1,29.61,SSW,209,3.0,3.0,40,0.00,,---,0.00,VWS V14.01,2017-02-22 09:48:00,
2017-02-22 02:53:00,45.0,22.1,29.61,SSW,209,0.0,3.0,40,0.00,,---,0.00,VWS V14.01,2017-02-22 09:53:00,
2017-02-22 02:58:00,44.9,22.1,29.61,SSW,209,0.0,3.0,40,0.00,,---,0.00,VWS V14.01,2017-02-22 09:58:00,
2017-02-22 03:04:00,45.0,22.1,29.60,SSW,209,0.0,6.0,40,0.00,,---,0.00,VWS V14.01,2017-02-22 10:04:00,
2017-02-22 03:09:00,45.2,22.3,29.61,SSW,209,0.0,6.0,40,0.00,,---,0.00,VWS V14.01,2017-02-22 10:09:00,
2017-02-22 03:14:00,45.1,22.2,29.61,SSW,209,5.0,6.0,40,0.00,,---,0.00,VWS V14.01,2017-02-22 10:14:00,
2017-02-22 03:19:00,45.3,21.8,29.60,SSW,209,0.0,6.0,39,0.00,,---,0.00,VWS V14.01,2017-02-22 10:19:00,
2017-02-22 03:24:00,45.1,21.6,29.61,SSW,209,0.0,6.0,39,0.00,,---,0.00,VWS V14.01,2017-02-22 10:24:00,
2017-02-22 03:29:00,44.5,21.1,29.61,SSW,213,0.0,6.0,39,0.00,,---,0.00,VWS V14.01,2017-02-22 10:29:00,
2017-02-22 03:34:00,44.6,21.2,29.61,SSW,213,0.0,3.0,39,0.00,,---,0.00,VWS V14.01,2017-02-22 10:34:00,
2017-02-22 03:39:00,44.7,21.3,29.61,SSW,213,0.0,3.0,39,0.00,,---,0.00,VWS V14.01,2017-02-22 10:39:00,
2017-02-22 03:44:00,45.0,21.5,29.61,SSW,213,0.0,3.0,39,0.00,,---,0.00,VWS V14.01,2017-02-22 10:44:00,
2017-02-22 03:49:00,44.2,21.4,29.61,South,190,5.0,9.0,40,0.00,,---,0.00,VWS V14.01,2017-02-22 10:49:00,
2017-02-22 03:54:00,44.6,21.8,29.61,South,190,2.0,9.0,40,0.00,,---,0.00,VWS V14.01,2017-02-22 10:54:00,
2017-02-22 03:57:00,44.9,21.5,29.61,South,190,0.0,9.0,39,0.00,,---,0.00,VWS V14.01,2017-02-22 10:57:00,
2017-02-22 04:02:00,44.7,21.9,29.61,South,190,3.0,3.0,40,0.00,,---,0.00,VWS V14.01,2017-02-22 11:02:00,
2017-02-22 04:07:00,44.1,21.9,29.61,SSW,203,3.0,7.0,41,0.00,,---,0.00,VWS V14.01,2017-02-22 11:07:00,
2017-02-22 04:12:00,43.4,21.9,29.61,SSW,203,0.0,7.0,42,0.00,,---,0.00,VWS V14.01,2017-02-22 11:12:00,
2017-02-22 04:17:00,43.3,21.8,29.61,SSW,203,4.0,7.0,42,0.00,,---,0.00,VWS V14.01,2017-02-22 11:17:00,
2017-02-22 04:22:00,43.1,21.6,29.60,SSW,203,0.0,7.0,42,0.00,,---,0.00,VWS V14.01,2017-02-22 11:22:00,
2017-02-22 04:27:00,42.9,21.4,29.61,SSW,203,3.0,7.0,42,0.00,,---,0.00,VWS V14.01,2017-02-22 11:27:00,
2017-02-22 04:32:00,42.7,21.2,29.60,SSW,203,0.0,1.0,42,0.00,,---,0.00,VWS V14.01,2017-02-22 11:32:00,
2017-02-22 04:38:00,42.3,20.9,29.60,SSW,203,2.0,3.0,42,0.00,,---,0.00,VWS V14.01,2017-02-22 11:38:00,
2017-02-22 04:43:00,42.0,20.6,29.61,SSW,203,2.0,3.0,42,0.00,,---,0.00,VWS V14.01,2017-02-22 11:43:00,
2017-02-22 04:48:00,42.1,20.7,29.61,SW,223,0.0,6.0,42,0.00,,---,0.00,VWS V14.01,2017-02-22 11:48:00,
2017-02-22 04:53:00,42.4,21.0,29.61,SW,223,0.0,6.0,42,0.00,,---,0.00,VWS V14.01,2017-02-22 11:53:00,
2017-02-22 04:58:00,42.2,20.8,29.61,SW,223,0.0,6.0,42,0.00,,---,0.00,VWS V14.01,2017-02-22 11:58:00,
2017-02-22 05:03:00,41.7,20.3,29.61,SW,223,1.0,4.0,42,0.00,,---,0.00,VWS V14.01,2017-02-22 12:03:00,
2017-02-22 05:08:00,41.9,20.5,29.61,SW,223,3.0,4.0,42,0.00,,---,0.00,VWS V14.01,2017-02-22 12:08:00,
2017-02-22 05:13:00,41.8,20.4,29.61,SW,223,1.0,4.0,42,0.00,,---,0.00,VWS V14.01,2017-02-22 12:13:00,
2017-02-22 05:18:00,41.9,20.5,29.61,SW,223,0.0,4.0,42,0.00,,---,0.00,VWS V14.01,2017-02-22 12:18:00,
2017-02-22 05:23:00,41.4,20.0,29.62,SW,223,3.0,4.0,42,0.00,,---,0.00,VWS V14.01,2017-02-22 12:23:00,
2017-02-22 05:28:00,40.7,20.5,29.61,SW,223,0.0,4.0,44,0.00,,---,0.00,VWS V14.01,2017-02-22 12:28:00,
2017-02-22 05:33:00,40.4,20.2,29.61,SW,223,0.0,2.0,44,0.00,,---,0.00,VWS V14.01,2017-02-22 12:33:00,
2017-02-22 05:38:00,40.2,20.6,29.61,SW,223,0.0,2.0,45,0.00,,---,0.00,VWS V14.01,2017-02-22 12:38:00,
2017-02-22 05:43:00,39.7,20.6,29.62,SW,223,0.0,3.0,46,0.00,,---,0.00,VWS V14.01,2017-02-22 12:43:00,
2017-02-22 05:48:00,39.4,20.4,29.61,SW,224,0.0,3.0,46,0.00,,---,0.00,VWS V14.01,2017-02-22 12:48:00,
2017-02-22 05:53:00,39.0,20.5,29.62,SW,224,0.0,3.0,47,0.00,,---,0.00,VWS V14.01,2017-02-22 12:53:00,
2017-02-22 05:58:00,38.8,20.3,29.62,ENE,63,0.0,7.0,47,0.00,,---,0.00,VWS V14.01,2017-02-22 12:58:00,
2017-02-22 06:03:00,38.8,20.3,29.62,ENE,63,0.0,5.0,47,0.00,,---,0.00,VWS V14.01,2017-02-22 13:03:00,
2017-02-22 06:08:00,39.2,20.7,29.62,ENE,57,7.0,7.0,47,0.00,,---,0.00,VWS V14.01,2017-02-22 13:08:00,
2017-02-22 06:13:00,39.5,21.5,29.62,East,80,3.0,9.0,48,0.00,,---,0.00,VWS V14.01,2017-02-22 13:13:00,
2017-02-22 06:18:00,39.6,22.5,29.63,South,179,5.0,11.0,50,0.00,,---,0.00,VWS V14.01,2017-02-22 13:18:00,
2017-02-22 06:23:00,39.6,23.4,29.63,ENE,57,4.0,11.0,52,0.00,,---,0.00,VWS V14.01,2017-02-22 13:23:00,
2017-02-22 06:28:00,40.2,24.5,29.63,East,84,5.0,11.0,53,0.00,,---,0.00,VWS V14.01,2017-02-22 13:28:00,
2017-02-22 06:33:00,39.7,24.9,29.63,ENE,65,1.0,7.0,55,0.00,,---,0.00,VWS V14.01,2017-02-22 13:33:00,
2017-02-22 06:38:00,39.2,24.8,29.64,ESE,112,3.0,7.0,56,0.00,,---,0.00,VWS V14.01,2017-02-22 13:38:00,
2017-02-22 06:43:00,38.5,25.4,29.64,ENE,67,3.0,7.0,59,0.00,,---,0.00,VWS V14.01,2017-02-22 13:43:00,
2017-02-22 06:45:00,38.4,25.3,29.63,ENE,68,4.0,7.0,59,0.00,,---,0.00,VWS V14.01,2017-02-22 13:45:00,
2017-02-22 06:50:00,38.0,25.8,29.64,East,84,3.0,7.0,61,0.00,,---,0.00,VWS V14.01,2017-02-22 13:50:00,
2017-02-22 06:55:00,38.0,26.1,29.64,East,84,5.0,7.0,62,0.00,,---,0.00,VWS V14.01,2017-02-22 13:55:00,
2017-02-22 07:00:00,38.0,26.1,29.65,ENE,76,9.0,9.0,62,0.00,,---,0.00,VWS V14.01,2017-02-22 14:00:00,
2017-02-22 07:05:00,38.1,26.6,29.65,East,96,3.0,11.0,63,0.00,,---,0.00,VWS V14.01,2017-02-22 14:05:00,
2017-02-22 07:10:00,38.3,26.8,29.64,ENE,76,7.0,14.0,63,0.00,,---,0.00,VWS V14.01,2017-02-22 14:10:00,
2017-02-22 07:15:00,38.8,26.9,29.65,East,86,2.0,14.0,62,0.00,,---,0.00,VWS V14.01,2017-02-22 14:15:00,
2017-02-22 07:21:00,39.2,26.9,29.66,ESE,103,0.0,14.0,61,0.00,,---,0.00,VWS V14.01,2017-02-22 14:21:00,
2017-02-22 07:26:00,39.4,27.1,29.65,ENE,74,9.0,14.0,61,0.00,,---,0.00,VWS V14.01,2017-02-22 14:26:00,
2017-02-22 07:31:00,39.6,26.9,29.67,East,96,3.0,14.0,60,0.00,,---,0.00,VWS V14.01,2017-02-22 14:31:00,
2017-02-22 07:36:00,39.7,27.0,29.67,East,86,3.0,11.0,60,0.00,,---,0.00,VWS V14.01,2017-02-22 14:36:00,
2017-02-22 07:41:00,39.8,26.7,29.67,East,89,7.0,11.0,59,0.00,,---,0.00,VWS V14.01,2017-02-22 14:41:00,
2017-02-22 07:46:00,40.0,26.8,29.67,East,101,5.0,11.0,59,0.00,,---,0.00,VWS V14.01,2017-02-22 14:46:00,
2017-02-22 07:51:00,40.1,26.9,29.67,ENE,71,6.0,12.0,59,0.00,,---,0.00,VWS V14.01,2017-02-22 14:51:00,
2017-02-22 07:56:00,40.4,26.8,29.68,East,98,7.0,12.0,58,0.00,,---,0.00,VWS V14.01,2017-02-22 14:56:00,
2017-02-22 08:01:00,40.7,27.1,29.68,ESE,115,7.0,12.0,58,0.00,,---,0.00,VWS V14.01,2017-02-22 15:01:00,
2017-02-22 08:06:00,40.7,26.7,29.68,East,88,5.0,11.0,57,0.00,,---,0.00,VWS V14.01,2017-02-22 15:06:00,
2017-02-22 08:11:00,40.7,26.7,29.69,East,94,4.0,12.0,57,0.00,,---,0.00,VWS V14.01,2017-02-22 15:11:00,
2017-02-22 08:16:00,40.8,26.3,29.69,ESE,116,5.0,12.0,56,0.00,,---,0.00,VWS V14.01,2017-02-22 15:16:00,
2017-02-22 08:21:00,41.1,26.6,29.69,East,87,6.0,12.0,56,0.00,,---,0.00,VWS V14.01,2017-02-22 15:21:00,
2017-02-22 08:26:00,41.1,26.6,29.69,East,98,3.0,12.0,56,0.00,,---,0.00,VWS V14.01,2017-02-22 15:26:00,
2017-02-22 08:31:00,41.3,26.4,29.69,ENE,78,5.0,12.0,55,0.00,,---,0.00,VWS V14.01,2017-02-22 15:31:00,
2017-02-22 08:36:00,41.5,26.1,29.70,NE,53,8.0,9.0,54,0.00,,---,0.00,VWS V14.01,2017-02-22 15:36:00,
2017-02-22 08:41:00,41.2,25.8,29.70,East,86,7.0,11.0,54,0.00,,---,0.00,VWS V14.01,2017-02-22 15:41:00,
2017-02-22 08:46:00,41.5,26.1,29.70,ENE,78,7.0,12.0,54,0.00,,---,0.00,VWS V14.01,2017-02-22 15:46:00,
2017-02-22 08:51:00,41.7,26.3,29.71,ESE,105,4.0,12.0,54,0.00,,---,0.00,VWS V14.01,2017-02-22 15:51:00,
2017-02-22 08:56:00,41.6,25.8,29.69,ENE,71,6.0,12.0,53,0.00,,---,0.00,VWS V14.01,2017-02-22 15:56:00,
2017-02-22 09:01:00,41.9,26.5,29.69,East,93,5.0,10.0,54,0.00,,---,0.00,VWS V14.01,2017-02-22 16:01:00,
2017-02-22 09:06:00,42.0,26.1,29.69,East,88,9.0,11.0,53,0.00,,---,0.00,VWS V14.01,2017-02-22 16:06:00,
2017-02-22 09:11:00,42.4,26.5,29.69,East,92,11.0,13.0,53,0.00,,---,0.00,VWS V14.01,2017-02-22 16:11:00,
2017-02-22 09:16:00,42.4,26.0,29.70,ESE,107,5.0,13.0,52,0.00,,---,0.00,VWS V14.01,2017-02-22 16:16:00,
2017-02-22 09:21:00,42.8,26.4,29.70,SE,128,10.0,13.0,52,0.00,,---,0.00,VWS V14.01,2017-02-22 16:21:00,
2017-02-22 09:27:00,43.4,26.5,29.69,SE,128,9.0,13.0,51,0.00,,---,0.00,VWS V14.01,2017-02-22 16:27:00,
2017-02-22 09:32:00,43.9,27.0,29.70,ESE,113,9.0,11.0,51,0.00,,---,0.00,VWS V14.01,2017-02-22 16:32:00,
2017-02-22 09:37:00,44.0,26.6,29.70,East,94,9.0,14.0,50,0.00,,---,0.00,VWS V14.01,2017-02-22 16:37:00,
2017-02-22 09:42:00,44.1,26.7,29.70,ENE,67,1.0,14.0,50,0.00,,---,0.00,VWS V14.01,2017-02-22 16:42:00,
2017-02-22 09:47:00,44.6,26.6,29.69,East,101,2.0,14.0,49,0.00,,---,0.00,VWS V14.01,2017-02-22 16:47:00,
2017-02-22 09:52:00,45.0,27.0,29.70,ENE,78,6.0,14.0,49,0.00,,---,0.00,VWS V14.01,2017-02-22 16:52:00,
2017-02-22 09:57:00,45.1,27.1,29.70,ENE,78,3.0,14.0,49,0.00,,---,0.00,VWS V14.01,2017-02-22 16:57:00,
2017-02-22 10:02:00,45.8,27.2,29.70,East,81,3.0,4.0,48,0.00,,---,0.00,VWS V14.01,2017-02-22 17:02:00,
2017-02-22 10:07:00,45.5,27.0,29.69,ENE,57,7.0,11.0,48,0.00,,---,0.00,VWS V14.01,2017-02-22 17:07:00,
2017-02-22 10:12:00,45.7,27.1,29.70,ESE,107,4.0,11.0,48,0.00,,---,0.00,VWS V14.01,2017-02-22 17:12:00,
2017-02-22 10:17:00,46.1,27.0,29.70,NE,54,4.0,12.0,47,0.00,,---,0.00,VWS V14.01,2017-02-22 17:17:00,
2017-02-22 10:23:00,46.1,27.0,29.68,NE,35,6.0,12.0,47,0.00,,---,0.00,VWS V14.01,2017-02-22 17:23:00,
2017-02-22 10:28:00,46.5,26.9,29.68,ESE,105,11.0,12.0,46,0.00,,---,0.00,VWS V14.01,2017-02-22 17:28:00,
2017-02-22 10:33:00,46.7,27.0,29.68,SE,130,7.0,10.0,46,0.00,,---,0.00,VWS V14.01,2017-02-22 17:33:00,
2017-02-22 10:38:00,47.5,27.2,29.68,ENE,74,5.0,11.0,45,0.00,,---,0.00,VWS V14.01,2017-02-22 17:38:00,
2017-02-22 10:43:00,47.9,27.0,29.67,ENE,69,11.0,16.0,44,0.00,,---,0.00,VWS V14.01,2017-02-22 17:43:00,
2017-02-22 10:48:00,47.8,27.5,29.67,NE,44,1.0,16.0,45,0.00,,---,0.00,VWS V14.01,2017-02-22 17:48:00,
2017-02-22 10:53:00,48.4,28.0,29.67,ESE,118,6.0,16.0,45,0.00,,---,0.00,VWS V14.01,2017-02-22 17:53:00,
2017-02-22 10:58:00,49.4,28.4,29.67,ENE,76,6.0,16.0,44,0.00,,---,0.00,VWS V14.01,2017-02-22 17:58:00,
2017-02-22 11:03:00,49.9,28.9,29.67,SE,140,10.0,15.0,44,0.00,,---,0.00,VWS V14.01,2017-02-22 18:03:00,
2017-02-22 11:08:00,49.7,28.1,29.67,ENE,74,5.0,15.0,43,0.00,,---,0.00,VWS V14.01,2017-02-22 18:08:00,
2017-02-22 11:13:00,49.5,28.0,29.67,SE,140,10.0,15.0,43,0.00,,---,0.00,VWS V14.01,2017-02-22 18:13:00,
2017-02-22 11:18:00,49.7,28.1,29.66,East,96,6.0,15.0,43,0.00,,---,0.00,VWS V14.01,2017-02-22 18:18:00,
2017-02-22 11:23:00,49.5,28.0,29.66,ENE,74,7.0,16.0,43,0.00,,---,0.00,VWS V14.01,2017-02-22 18:23:00,
2017-02-22 11:28:00,49.9,27.7,29.66,ENE,68,11.0,16.0,42,0.00,,---,0.00,VWS V14.01,2017-02-22 18:28:00,
2017-02-22 11:33:00,50.3,28.1,29.66,East,91,7.0,9.0,42,0.00,,---,0.00,VWS V14.01,2017-02-22 18:33:00,
2017-02-22 11:38:00,50.6,27.8,29.65,East,84,11.0,15.0,41,0.00,,---,0.00,VWS V14.01,2017-02-22 18:38:00,
2017-02-22 11:43:00,50.8,28.0,29.65,NE,51,14.0,15.0,41,0.00,,---,0.00,VWS V14.01,2017-02-22 18:43:00,
2017-02-22 11:48:00,51.1,28.2,29.65,ENE,74,4.0,15.0,41,0.00,,---,0.00,VWS V14.01,2017-02-22 18:48:00,
2017-02-22 11:53:00,51.5,28.6,29.64,ESE,113,10.0,15.0,41,0.00,,---,0.00,VWS V14.01,2017-02-22 18:53:00,
2017-02-22 11:58:00,51.3,27.8,29.65,East,84,6.0,16.0,40,0.00,,---,0.00,VWS V14.01,2017-02-22 18:58:00,
2017-02-22 12:03:00,51.6,27.5,29.64,SE,130,11.0,11.0,39,0.00,,---,0.00,VWS V14.01,2017-02-22 19:03:00,
2017-02-22 12:08:00,51.8,27.6,29.65,SE,131,14.0,17.0,39,0.00,,---,0.00,VWS V14.01,2017-02-22 19:08:00,
2017-02-22 12:13:00,51.2,27.1,29.64,ENE,75,6.0,17.0,39,0.00,,---,0.00,VWS V14.01,2017-02-22 19:13:00,
2017-02-22 12:15:00,51.2,27.1,29.64,ENE,63,10.0,17.0,39,0.00,,---,0.00,VWS V14.01,2017-02-22 19:15:00,
2017-02-22 12:20:00,51.7,27.6,29.64,ESE,107,4.0,17.0,39,0.00,,---,0.00,VWS V14.01,2017-02-22 19:20:00,
2017-02-22 12:25:00,52.6,27.7,29.63,NE,48,5.0,17.0,38,0.00,,---,0.00,VWS V14.01,2017-02-22 19:25:00,
2017-02-22 12:30:00,52.5,27.0,29.62,East,83,3.0,17.0,37,0.00,,---,0.00,VWS V14.01,2017-02-22 19:30:00,
2017-02-22 12:35:00,52.7,27.2,29.62,SE,130,9.0,11.0,37,0.00,,---,0.00,VWS V14.01,2017-02-22 19:35:00,
2017-02-22 12:41:00,52.4,26.9,29.62,East,84,11.0,13.0,37,0.00,,---,0.00,VWS V14.01,2017-02-22 19:41:00,
2017-02-22 12:46:00,52.6,27.1,29.62,East,99,13.0,14.0,37,0.00,,---,0.00,VWS V14.01,2017-02-22 19:46:00,
2017-02-22 12:51:00,52.7,27.8,29.62,East,93,3.0,15.0,38,0.00,,---,0.00,VWS V14.01,2017-02-22 19:51:00,
2017-02-22 12:56:00,53.1,27.5,29.60,NE,52,5.0,17.0,37,0.00,,---,0.00,VWS V14.01,2017-02-22 19:56:00,
2017-02-22 13:01:00,53.1,26.9,29.61,SE,128,9.0,17.0,36,0.00,,---,0.00,VWS V14.01,2017-02-22 20:01:00,
2017-02-22 13:06:00,53.6,27.3,29.61,ENE,78,7.0,11.0,36,0.00,,---,0.00,VWS V14.01,2017-02-22 20:06:00,
2017-02-22 13:11:00,53.5,27.2,29.60,ESE,103,12.0,14.0,36,0.00,,---,0.00,VWS V14.01,2017-02-22 20:11:00,
2017-02-22 13:16:00,53.5,27.2,29.60,ESE,111,9.0,16.0,36,0.00,,---,0.00,VWS V14.01,2017-02-22 20:16:00,
2017-02-22 13:21:00,53.4,27.1,29.60,East,94,8.0,16.0,36,0.00,,---,0.00,VWS V14.01,2017-02-22 20:21:00,
2017-02-22 13:26:00,53.2,27.0,29.59,ENE,71,7.0,16.0,36,0.00,,---,0.00,VWS V14.01,2017-02-22 20:26:00,
2017-02-22 13:31:00,53.8,26.8,29.59,SE,127,12.0,16.0,35,0.00,,---,0.00,VWS V14.01,2017-02-22 20:31:00,
2017-02-22 13:36:00,54.3,27.2,29.59,East,88,10.0,12.0,35,0.00,,---,0.00,VWS V14.01,2017-02-22 20:36:00,
2017-02-22 13:41:00,54.6,28.2,29.59,East,79,1.0,17.0,36,0.00,,---,0.00,VWS V14.01,2017-02-22 20:41:00,
2017-02-22 13:46:00,54.8,27.7,29.58,ESE,105,12.0,17.0,35,0.00,,---,0.00,VWS V14.01,2017-02-22 20:46:00,
2017-02-22 13:51:00,54.6,27.5,29.58,ENE,66,10.0,17.0,35,0.00,,---,0.00,VWS V14.01,2017-02-22 20:51:00,
2017-02-22 13:56:00,54.7,27.6,29.58,East,96,6.0,17.0,35,0.00,,---,0.00,VWS V14.01,2017-02-22 20:56:00,
2017-02-22 14:01:00,55.0,27.2,29.57,East,82,13.0,13.0,34,0.00,,---,0.00,VWS V14.01,2017-02-22 21:01:00,
2017-02-22 14:06:00,55.4,27.5,29.57,East,81,14.0,17.0,34,0.00,,---,0.00,VWS V14.01,2017-02-22 21:06:00,
2017-02-22 14:12:00,54.9,27.1,29.57,ENE,71,11.0,17.0,34,0.00,,---,0.00,VWS V14.01,2017-02-22 21:12:00,
2017-02-22 14:17:00,55.1,27.3,29.57,ENE,72,2.0,17.0,34,0.00,,---,0.00,VWS V14.01,2017-02-22 21:17:00,
2017-02-22 14:22:00,55.0,27.2,29.57,ENE,61,5.0,17.0,34,0.00,,---,0.00,VWS V14.01,2017-02-22 21:22:00,
2017-02-22 14:27:00,55.3,27.4,29.57,ENE,68,2.0,17.0,34,0.00,,---,0.00,VWS V14.01,2017-02-22 21:27:00,
2017-02-22 14:32:00,55.7,27.8,29.57,NE,53,10.0,14.0,34,0.00,,---,0.00,VWS V14.01,2017-02-22 21:32:00,
2017-02-22 14:37:00,55.5,27.6,29.57,East,98,12.0,14.0,34,0.00,,---,0.00,VWS V14.01,2017-02-22 21:37:00,
2017-02-22 14:42:00,55.9,28.0,29.57,ENE,65,8.0,14.0,34,0.00,,---,0.00,VWS V14.01,2017-02-22 21:42:00,
2017-02-22 14:47:00,56.0,27.3,29.57,ENE,66,8.0,14.0,33,0.00,,---,0.00,VWS V14.01,2017-02-22 21:47:00,
2017-02-22 14:52:00,56.6,27.9,29.57,East,96,5.0,14.0,33,0.00,,---,0.00,VWS V14.01,2017-02-22 21:52:00,
2017-02-22 14:57:00,56.6,27.1,29.57,East,100,8.0,16.0,32,0.00,,---,0.00,VWS V14.01,2017-02-22 21:57:00,
2017-02-22 15:02:00,56.1,27.4,29.57,East,95,13.0,14.0,33,0.00,,---,0.00,VWS V14.01,2017-02-22 22:02:00,
2017-02-22 15:03:00,56.0,27.3,29.57,East,90,10.0,15.0,33,0.00,,---,0.00,VWS V14.01,2017-02-22 22:03:00,
2017-02-22 15:08:00,55.7,27.1,29.57,NE,53,6.0,15.0,33,0.00,,---,0.00,VWS V14.01,2017-02-22 22:08:00,
2017-02-22 15:13:00,56.0,27.3,29.57,East,85,11.0,15.0,33,0.00,,---,0.00,VWS V14.01,2017-02-22 22:13:00,
2017-02-22 15:19:00,56.0,27.3,29.57,ENE,67,12.0,15.0,33,0.00,,---,0.00,VWS V14.01,2017-02-22 22:19:00,
2017-02-22 15:24:00,56.1,27.4,29.57,ENE,63,4.0,15.0,33,0.00,,---,0.00,VWS V14.01,2017-02-22 22:24:00,
2017-02-22 15:29:00,56.1,27.4,29.57,ENE,63,6.0,16.0,33,0.00,,---,0.00,VWS V14.01,2017-02-22 22:29:00,
2017-02-22 15:34:00,55.6,27.0,29.57,East,79,6.0,14.0,33,0.00,,---,0.00,VWS V14.01,2017-02-22 22:34:00,
2017-02-22 15:39:00,55.6,27.0,29.57,ENE,65,7.0,15.0,33,0.00,,---,0.00,VWS V14.01,2017-02-22 22:39:00,
2017-02-22 15:44:00,55.4,26.8,29.57,ENE,74,3.0,15.0,33,0.00,,---,0.00,VWS V14.01,2017-02-22 22:44:00,
2017-02-22 15:49:00,55.1,26.5,29.57,ENE,61,4.0,15.0,33,0.00,,---,0.00,VWS V14.01,2017-02-22 22:49:00,
2017-02-22 15:54:00,54.8,26.3,29.57,ENE,66,3.0,16.0,33,0.00,,---,0.00,VWS V14.01,2017-02-22 22:54:00,
2017-02-22 15:59:00,54.6,26.8,29.57,ENE,67,6.0,16.0,34,0.00,,---,0.00,VWS V14.01,2017-02-22 22:59:00,
2017-02-22 16:04:00,54.6,26.8,29.58,ENE,63,7.0,9.0,34,0.00,,---,0.00,VWS V14.01,2017-02-22 23:04:00,
2017-02-22 16:09:00,54.8,26.3,29.58,East,91,5.0,13.0,33,0.00,,---,0.00,VWS V14.01,2017-02-22 23:09:00,
2017-02-22 16:14:00,54.5,26.7,29.57,East,82,3.0,13.0,34,0.00,,---,0.00,VWS V14.01,2017-02-22 23:14:00,
2017-02-22 16:19:00,54.6,26.8,29.58,ESE,102,7.0,13.0,34,0.00,,---,0.00,VWS V14.01,2017-02-22 23:19:00,
2017-02-22 16:24:00,54.4,26.6,29.57,ENE,77,10.0,13.0,34,0.00,,---,0.00,VWS V14.01,2017-02-22 23:24:00,
2017-02-22 16:29:00,54.2,26.5,29.58,ENE,77,12.0,15.0,34,0.00,,---,0.00,VWS V14.01,2017-02-22 23:29:00,
2017-02-22 16:34:00,54.1,26.4,29.57,NE,55,6.0,10.0,34,0.00,,---,0.00,VWS V14.01,2017-02-22 23:34:00,
2017-02-22 16:39:00,53.9,26.2,29.58,East,90,13.0,15.0,34,0.00,,---,0.00,VWS V14.01,2017-02-22 23:39:00,
2017-02-22 16:44:00,53.7,26.0,29.58,ENE,63,10.0,15.0,34,0.00,,---,0.00,VWS V14.01,2017-02-22 23:44:00,
2017-02-22 16:49:00,53.3,25.7,29.57,ENE,68,2.0,16.0,34,0.00,,---,0.00,VWS V14.01,2017-02-22 23:49:00,
2017-02-22 16:54:00,53.2,25.6,29.58,East,88,6.0,16.0,34,0.00,,---,0.00,VWS V14.01,2017-02-22 23:54:00,
2017-02-22 16:59:00,53.0,25.4,29.58,East,99,7.0,16.0,34,0.00,,---,0.00,VWS V14.01,2017-02-22 23:59:00,
2017-02-22 17:04:00,52.8,25.2,29.58,ENE,75,4.0,11.0,34,0.00,,---,0.00,VWS V14.01,2017-02-23 00:04:00,
2017-02-22 17:09:00,52.7,25.1,29.58,NE,49,13.0,15.0,34,0.00,,---,0.00,VWS V14.01,2017-02-23 00:09:00,
2017-02-22 17:14:00,52.6,25.0,29.58,ENE,59,4.0,15.0,34,0.00,,---,0.00,VWS V14.01,2017-02-23 00:14:00,
2017-02-22 17:19:00,52.4,24.9,29.58,ENE,61,9.0,15.0,34,0.00,,---,0.00,VWS V14.01,2017-02-23 00:19:00,
2017-02-22 17:24:00,52.3,24.8,29.59,ENE,65,9.0,15.0,34,0.00,,---,0.00,VWS V14.01,2017-02-23 00:24:00,
2017-02-22 17:29:00,52.1,24.6,29.58,ENE,59,0.0,15.0,34,0.00,,---,0.00,VWS V14.01,2017-02-23 00:29:00,
2017-02-22 17:34:00,51.9,24.4,29.59,ENE,67,7.0,9.0,34,0.00,,---,0.00,VWS V14.01,2017-02-23 00:34:00,
2017-02-22 17:40:00,51.7,25.0,29.60,ENE,63,6.0,14.0,35,0.00,,---,0.00,VWS V14.01,2017-02-23 00:40:00,
2017-02-22 17:45:00,51.4,24.7,29.60,ENE,61,12.0,14.0,35,0.00,,---,0.00,VWS V14.01,2017-02-23 00:45:00,
2017-02-22 17:50:00,51.2,24.5,29.60,ENE,63,11.0,14.0,35,0.00,,---,0.00,VWS V14.01,2017-02-23 00:50:00,
2017-02-22 17:55:00,51.0,24.3,29.60,NE,52,3.0,14.0,35,0.00,,---,0.00,VWS V14.01,2017-02-23 00:55:00,
2017-02-22 18:00:00,50.9,24.2,29.60,NNE,29,0.0,14.0,35,0.00,,---,0.00,VWS V14.01,2017-02-23 01:00:00,
2017-02-22 18:05:00,50.5,24.6,29.61,ENE,64,13.0,16.0,36,0.00,,---,0.00,VWS V14.01,2017-02-23 01:05:00,
2017-02-22 18:10:00,49.4,24.9,29.61,NNE,24,7.0,16.0,38,0.00,,---,0.00,VWS V14.01,2017-02-23 01:10:00,
2017-02-22 18:15:00,48.4,24.6,29.61,NE,41,6.0,16.0,39,0.00,,---,0.00,VWS V14.01,2017-02-23 01:15:00,
2017-02-22 18:20:00,47.8,25.3,29.62,NNE,28,8.0,17.0,41,0.00,,---,0.00,VWS V14.01,2017-02-23 01:20:00,
2017-02-22 18:25:00,47.5,25.0,29.62,North,10,4.0,17.0,41,0.00,,---,0.00,VWS V14.01,2017-02-23 01:25:00,
2017-02-22 18:30:00,47.2,25.3,29.63,NNE,22,6.0,17.0,42,0.00,,---,0.00,VWS V14.01,2017-02-23 01:30:00,
2017-02-22 18:35:00,46.9,25.0,29.63,North,360,6.0,16.0,42,0.00,,---,0.00,VWS V14.01,2017-02-23 01:35:00,
2017-02-22 18:40:00,46.7,25.4,29.63,NE,46,4.0,16.0,43,0.00,,---,0.00,VWS V14.01,2017-02-23 01:40:00,
2017-02-22 18:45:00,46.6,25.3,29.64,North,355,5.0,16.0,43,0.00,,---,0.00,VWS V14.01,2017-02-23 01:45:00,
2017-02-22 18:50:00,46.5,25.2,29.64,North,360,2.0,16.0,43,0.00,,---,0.00,VWS V14.01,2017-02-23 01:50:00,
2017-02-22 18:55:00,46.4,25.1,29.63,NNE,15,2.0,16.0,43,0.00,,---,0.00,VWS V14.01,2017-02-23 01:55:00,
2017-02-22 19:00:00,46.2,25.0,29.64,NNW,346,1.0,16.0,43,0.00,,---,0.00,VWS V14.01,2017-02-23 02:00:00,
2017-02-22 19:05:00,46.1,24.9,29.64,ENE,57,3.0,7.0,43,0.00,,---,0.00,VWS V14.01,2017-02-23 02:05:00,
2017-02-22 19:10:00,45.9,25.2,29.64,NE,34,2.0,10.0,44,0.00,,---,0.00,VWS V14.01,2017-02-23 02:10:00,
2017-02-22 19:15:00,45.7,25.0,29.64,NE,41,4.0,10.0,44,0.00,,---,0.00,VWS V14.01,2017-02-23 02:15:00,
2017-02-22 19:20:00,45.6,25.0,29.64,NE,37,3.0,10.0,44,0.00,,---,0.00,VWS V14.01,2017-02-23 02:20:00,
2017-02-22 19:25:00,45.6,25.5,29.64,NE,42,0.0,10.0,45,0.00,,---,0.00,VWS V14.01,2017-02-23 02:25:00,
2017-02-22 19:30:00,45.4,25.3,29.64,NNW,340,0.0,10.0,45,0.00,,---,0.00,VWS V14.01,2017-02-23 02:30:00,
2017-02-22 19:35:00,45.2,25.1,29.65,NW,321,3.0,8.0,45,0.00,,---,0.00,VWS V14.01,2017-02-23 02:35:00,
2017-02-22 19:40:00,45.0,25.0,29.65,NNW,327,0.0,8.0,45,0.00,,---,0.00,VWS V14.01,2017-02-23 02:40:00,
2017-02-22 19:45:00,44.9,24.9,29.65,NNW,342,3.0,8.0,45,0.00,,---,0.00,VWS V14.01,2017-02-23 02:45:00,
2017-02-22 19:50:00,44.8,24.8,29.64,North,360,2.0,8.0,45,0.00,,---,0.00,VWS V14.01,2017-02-23 02:50:00,
2017-02-22 19:55:00,44.7,24.7,29.64,North,355,3.0,8.0,45,0.00,,---,0.00,VWS V14.01,2017-02-23 02:55:00,
2017-02-22 20:01:00,44.6,24.6,29.65,North,360,3.0,8.0,45,0.00,,---,0.00,VWS V14.01,2017-02-23 03:01:00,
2017-02-22 20:06:00,44.4,24.4,29.65,North,350,10.0,10.0,45,0.00,,---,0.00,VWS V14.01,2017-02-23 03:06:00,
2017-02-22 20:11:00,44.2,23.7,29.64,North,360,0.0,10.0,44,0.00,,---,0.00,VWS V14.01,2017-02-23 03:11:00,
2017-02-22 20:16:00,44.1,23.6,29.65,NNW,346,5.0,10.0,44,0.00,,---,0.00,VWS V14.01,2017-02-23 03:16:00,
2017-02-22 20:21:00,43.4,24.5,29.66,NNW,348,11.0,15.0,47,0.00,,---,0.00,VWS V14.01,2017-02-23 03:21:00,
2017-02-22 20:26:00,42.0,25.7,29.65,NNW,348,13.0,15.0,52,0.00,,---,0.00,VWS V14.01,2017-02-23 03:26:00,
2017-02-22 20:31:00,41.2,25.8,29.65,North,360,6.0,15.0,54,0.00,,---,0.00,VWS V14.01,2017-02-23 03:31:00,
2017-02-22 20:36:00,40.8,25.9,29.65,NNW,333,6.0,12.0,55,0.00,,---,0.00,VWS V14.01,2017-02-23 03:36:00,
2017-02-22 20:41:00,40.5,26.0,29.65,North,350,5.0,12.0,56,0.00,,---,0.00,VWS V14.01,2017-02-23 03:41:00,
2017-02-22 20:46:00,40.3,26.3,29.66,NNW,344,3.0,12.0,57,0.00,,---,0.00,VWS V14.01,2017-02-23 03:46:00,
2017-02-22 20:51:00,40.1,26.5,29.66,NNW,345,7.0,12.0,58,0.00,,---,0.00,VWS V14.01,2017-02-23 03:51:00,